Home > Weather > Delta > Past weeks

Flag for Canada Past Weather in Delta, British Columbia, Canada — Yesterday and Last 2 Weeks

Now
64 °F

Passing clouds.


Feels Like: 64 °F
Forecast: 58 / 72 °F
Wind: 13 mph from West

Location: Vancouver International Airport

Current Time: Aug 27, 2016 at 6:43:07 AM

Latest Report: Aug 27, 2016 at 6:00 AM


Visibility: 30 mi

Pressure: 29.72 "Hg

Humidity: 83%

Dew Point: 59 °F

Location of DeltaLocation

Past Weather in Delta — Graph

°F

Delta Temperature Yesterday

Maximum temperature yesterday: 79 °F (at 6:00 PM)
Minimum temperature yesterday: 61 °F (at 6:00 AM)
Average temperature yesterday: 69 °F

High & Low Weather Summary for the Past Weeks

 TemperatureHumidityPressure
High79 °F (Aug 19, 5:00 PM)94% (Aug 12, 5:00 AM)30.26 "Hg (Aug 12, 5:00 AM)
Low55 °F (Aug 23, 4:00 AM)39% (Aug 26, 6:00 PM)29.72 "Hg (Aug 27, 4:00 AM)
Average67 °F75%30.01 "Hg
* Reported Aug 12 5:00 AM — Aug 27 5:00 AM, Delta, Weather by CustomWeather, © 2016

Note: Actual official high and low records may vary slightly from our data, if they occured in-between our weather recording intervals... More about our weather records

Advertising

Delta Weather History for the Previous 24 Hours

Scroll right to see more
 ConditionsComfort  
Time TempWeatherWind HumidityBarometerVisibility
5:00 AM
Sat, Aug 27
64 °FPassing clouds.14 mph88%29.72 "Hg30 mi
4:00 AM64 °FPassing clouds.12 mph83%29.72 "Hg30 mi
3:00 AM64 °FPassing clouds.9 mph83%29.73 "Hg30 mi
2:00 AM64 °FPassing clouds.7 mph88%29.74 "Hg30 mi
1:00 AM66 °FPassing clouds.10 mph83%29.74 "Hg30 mi
12:00 AM66 °FClear.7 mph88%29.75 "Hg30 mi
11:00 PM
Fri, Aug 26
64 °FClear.3 mph78%29.75 "Hg30 mi
10:00 PM68 °FPassing clouds.No wind73%29.76 "Hg30 mi
9:00 PM66 °FPartly sunny.6 mph78%29.78 "Hg30 mi
8:00 PM70 °FPartly sunny.6 mph69%29.77 "Hg30 mi
7:00 PM77 °FOvercast.3 mph44%29.77 "Hg30 mi
6:00 PM79 °FMostly cloudy.3 mph39%29.80 "Hg30 mi
5:00 PM77 °FMore clouds than sun.3 mph47%29.82 "Hg30 mi
4:00 PM77 °FMore clouds than sun.5 mph47%29.84 "Hg30 mi
3:00 PM75 °FHigh level clouds.7 mph57%29.86 "Hg30 mi
2:00 PM75 °FHigh level clouds.3 mph54%29.88 "Hg30 mi
1:00 PM72 °FBroken clouds.7 mph69%29.90 "Hg30 mi
12:00 PM72 °FMostly cloudy.7 mph61%29.91 "Hg30 mi
11:00 AM73 °FBroken clouds.8 mph65%29.92 "Hg30 mi
10:00 AM73 °FOvercast.2 mph61%29.93 "Hg30 mi
9:00 AM70 °FOvercast.2 mph60%29.94 "Hg30 mi
8:00 AM64 °FHigh level clouds.7 mph78%29.95 "Hg30 mi
7:00 AM64 °FHigh level clouds.No wind78%29.95 "Hg30 mi
6:00 AM61 °FPassing clouds.2 mph88%29.94 "Hg30 mi
Weather by CustomWeather, © 2016

See weather overviewHow to use our weather pages